Vertical_Velocity
1 -1 -9 -1 -8 -2 7 1 -1 -15 -8 -4 1 3 4 -10 -5 -2 2 -1 -1 -2 -5 -7 -4 2 4 5 6 5 2 -0 -2 -5 -3 -5 1 -6
-0 -4 -4 6 4 4 1 7 10 6 1 -4 2 8 1 2 6 -2 -9 -3 2 -1 -5 1 1 2 2 -3 -8 -2 2 -4 -6 -0 0 -5 -1 3
1 3 4 4 -3 5 10 -1 4 15 -6 5 -4 4 -1 -4 -7 6 7 -7 -8 -6 -4 -5 -3 -2 5 -3 6 -5 -1 -2 0 -4 1 -3 -3 -1
-4 3 1 -1 -4 -1 -0 -3 -0 -1 -9 -4 -1 1 4 -2 -1 -3 2 0 1 0 -5 -9 -1 1 5 -2 -1 -2 -4 -4 2 -5 -6 5 -3 -3
-3 -1 -1 -2 -1 -3 -3 -2 -2 0 -1 -3 -5 -2 0 -5 3 -1 -0 2 -1 -1 3 2 -8 -1 -0 -6 -5 -3 -2 -6 -1 1 0 4 -2 -1
-0 -3 -1 -1 -2 -2 -1 0 -1 2 1 -2 -5 -1 0 2 1 4 -3 5 -5 0 8 8 -5 3 -0 -3 -4 -1 -5 -2 1 -1 -1 3 -5 3
2 -0 -0 -2 -0 2 -0 4 1 2 -0 2 0 -2 4 -1 14 1 7 -3 -0 0 1 4 1 1 -10 12 3 -1 0 -1 -1 4 -0 0 0 -1
-1 1 2 2 1 -2 -1 -2 1 1 6 4 4 0 1 -6 33 1 -2 34 -27 15 -6 4 5 7 -2 -1 -4 -1 2 -4 -2 3 4 1 4 3
-2 -2 -1 0 2 1 3 3 5 6 1 5 -4 -4 -3 9 -2 -0 -7 -1 19 -7 3 8 -6 -11 -5 5 -0 1 -2 -1 -9 -0 -1 -3 -2 -2
1 1 0 0 2 -1 -0 4 5 3 2 1 -4 -2 -7 -11 0 23 6 23 9 -1 -3 -5 10 4 4 7 -2 -5 -3 5 -3 3 1 3 -2 4
-3 -5 -4 -2 -4 -4 -6 -9 -6 1 3 6 5 5 3 6 7 -13 7 26 11 3 -1 -2 15 2 -0 1 -1 -4 2 -1 -1 1 6 -4 1 -2
-2 -2 -0 -2 -2 1 -3 -3 -4 2 1 5 2 1 5 5 10 -6 5 8 9 20 23 12 28 -4 0 7 1 1 -0 -1 -2 0 3 -3 -1 -0
0 1 1 -2 -3 -4 -4 -3 -3 -3 -1 -5 -0 -3 8 -7 5 6 2 11 -5 2 5 10 7 -3 -1 7 4 5 2 -1 1 1 2 -2 -1 -3
-2 -3 -2 -1 -2 -3 -4 -2 -1 -4 -5 -3 -1 1 8 4 10 5 4 8 10 5 9 7 9 1 6 4 1 2 4 -0 -0 -1 -1 -1 1 2
-1 -4 -3 -4 -2 -1 -0 -2 -2 -1 -2 0 -0 -4 2 8 5 3 4 7 11 5 7 4 -4 10 6 0 -0 0 3 4 -2 3 -3 -1 3 1
-6 -2 -5 -5 -2 -5 -4 1 -0 -1 -1 -0 -2 -0 6 1 0 8 -2 -0 4 5 0 0 12 6 4 4 2 3 4 1 0 2 -0 1 1 -0
-3 -4 -4 -4 -3 -3 -1 -1 -1 -1 -1 -3 2 -1 3 -3 3 7 2 2 4 7 9 10 6 5 6 -4 7 1 3 2 4 1 1 2 1 -2
-2 -5 -3 -3 -6 -6 -4 -0 -1 -1 -2 -1 -3 -2 2 0 -0 3 5 5 3 4 3 1 3 4 1 1 8 2 3 4 -1 0 2 2 -1 -1
-5 -5 -7 -6 -3 -2 -1 -1 -1 1 -2 -1 -1 -1 0 0 -1 1 1 4 5 7 6 7 2 3 3 5 6 8 -2 4 0 1 2 2 1 -0
-1 -1 -2 -4 -2 -3 -1 -1 1 1 -1 -2 -1 -1 1 0 -1 -0 3 4 2 1 1 -0 2 6 9 7 3 5 3 2 2 1 1 3 2 1
-2 -1 -0 -3 -1 -2 -2 0 -1 -1 -2 -3 -1 0 2 1 1 1 2 2 2 1 1 -2 5 2 4 3 0 0 2 3 -0 2 -0 1 2 2
-3 -1 -1 -4 -2 -1 -1 0 1 -0 -2 -3 -2 -0 1 0 -0 2 1 1 4 5 4 2 2 -0 6 6 3 1 4 2 0 1 -1 1 1 2
-2 -1 -2 -3 -2 -1 -2 -0 -1 -0 -1 -0 -2 -1 1 0 1 1 1 0 2 -0 1 -0 0 2 3 2 3 3 1 2 4 3 -1 0 1 2
Height
3084 3087 3089 3090 3090 3089 3089 3087 3086 3082 3078 3079 3078 3076 3076 3075 3075 3074 3074 3074 3073 3073 3074 3074 3074 3073 3071 3071 3069 3068 3067 3064 3062 3062 3060 3059 3057 3056
3078 3079 3080 3082 3082 3081 3081 3079 3078 3075 3069 3070 3070 3068 3067 3066 3065 3066 3065 3065 3064 3064 3065 3064 3064 3064 3064 3062 3061 3059 3058 3056 3055 3053 3053 3052 3051 3050
3071 3073 3075 3075 3074 3072 3070 3070 3069 3066 3063 3060 3059 3058 3058 3057 3058 3056 3055 3055 3054 3054 3053 3054 3053 3052 3054 3054 3053 3053 3050 3048 3048 3047 3044 3045 3044 3043
3069 3068 3067 3066 3066 3065 3064 3062 3060 3059 3055 3051 3048 3049 3047 3047 3046 3046 3045 3044 3043 3043 3043 3043 3044 3043 3045 3045 3044 3043 3042 3041 3038 3040 3037 3036 3037 3037
3060 3059 3058 3056 3055 3054 3052 3050 3047 3044 3042 3038 3035 3036 3035 3037 3036 3034 3032 3031 3031 3032 3032 3030 3030 3032 3034 3035 3035 3035 3034 3033 3034 3031 3031 3029 3030 3030
3051 3049 3047 3046 3043 3041 3038 3036 3034 3031 3028 3026 3022 3022 3022 3023 3022 3021 3021 3019 3020 3019 3020 3020 3019 3021 3025 3025 3026 3026 3024 3023 3027 3025 3023 3024 3024 3024
3042 3039 3036 3033 3030 3027 3023 3021 3018 3015 3012 3010 3008 3007 3007 3008 3008 3009 3008 3008 3006 3008 3009 3007 3009 3010 3013 3014 3015 3015 3014 3016 3018 3017 3017 3017 3017 3019
3030 3027 3023 3021 3017 3013 3009 3005 3001 2998 2996 2994 2992 2990 2990 2993 2994 2995 2996 2992 2995 2997 2997 3000 2998 3000 3002 3004 3007 3006 3007 3008 3009 3012 3013 3012 3012 3013
3018 3015 3011 3008 3003 2999 2995 2990 2986 2983 2980 2978 2975 2976 2978 2980 2981 2980 2984 2980 2981 2986 2987 2987 2989 2993 2994 2992 2997 2997 2998 3001 3002 3004 3005 3008 3009 3008
3005 3001 2997 2993 2989 2983 2978 2973 2971 2968 2966 2964 2961 2963 2964 2966 2965 2967 2968 2968 2968 2972 2974 2978 2978 2983 2982 2983 2987 2988 2991 2993 2994 2997 3000 3001 3002 3003
2995 2990 2984 2978 2974 2969 2962 2956 2953 2951 2951 2948 2946 2948 2950 2950 2951 2952 2952 2952 2952 2958 2961 2964 2966 2970 2973 2975 2977 2980 2983 2986 2987 2990 2993 2994 2996 2998
2980 2975 2970 2964 2958 2953 2945 2940 2936 2935 2932 2932 2932 2934 2935 2936 2937 2939 2941 2941 2939 2944 2948 2949 2949 2958 2962 2965 2968 2971 2976 2979 2982 2984 2987 2989 2990 2992
2965 2960 2955 2950 2945 2940 2935 2929 2924 2920 2918 2917 2919 2920 2922 2924 2924 2927 2930 2931 2933 2935 2938 2941 2943 2949 2953 2957 2960 2963 2968 2972 2976 2979 2982 2983 2985 2987
2951 2946 2940 2935 2929 2925 2922 2918 2913 2909 2906 2906 2907 2909 2910 2913 2915 2916 2916 2919 2922 2926 2927 2929 2932 2937 2943 2949 2953 2957 2962 2966 2970 2974 2976 2977 2979 2982
2943 2938 2931 2924 2919 2914 2910 2906 2902 2899 2896 2896 2897 2901 2902 2903 2905 2905 2906 2908 2912 2914 2914 2916 2919 2926 2933 2940 2946 2951 2956 2961 2965 2968 2970 2972 2975 2978
2934 2928 2922 2917 2911 2906 2901 2897 2893 2891 2889 2889 2890 2892 2893 2895 2897 2897 2899 2901 2903 2905 2908 2910 2913 2919 2926 2933 2939 2945 2950 2955 2959 2962 2966 2968 2971 2974
2921 2918 2914 2909 2904 2899 2894 2890 2886 2884 2882 2883 2885 2886 2886 2888 2888 2889 2891 2893 2895 2897 2900 2904 2909 2912 2918 2926 2932 2938 2944 2950 2954 2959 2962 2965 2968 2971
2913 2909 2905 2900 2895 2891 2887 2883 2880 2877 2876 2877 2878 2880 2880 2881 2882 2882 2883 2885 2889 2891 2894 2898 2902 2906 2910 2917 2926 2932 2938 2944 2949 2955 2958 2962 2965 2967
2906 2901 2897 2893 2888 2884 2880 2876 2874 2872 2871 2871 2872 2872 2873 2875 2876 2878 2878 2879 2882 2884 2886 2890 2895 2900 2904 2910 2918 2927 2931 2938 2944 2950 2954 2958 2961 2965
2900 2895 2889 2885 2881 2877 2874 2870 2868 2866 2865 2866 2866 2867 2867 2868 2869 2871 2872 2873 2876 2878 2881 2884 2887 2892 2898 2904 2911 2919 2925 2932 2939 2945 2951 2954 2957 2961
2893 2888 2883 2878 2874 2870 2867 2864 2862 2860 2859 2859 2860 2860 2861 2862 2863 2865 2867 2868 2870 2872 2876 2879 2882 2886 2890 2897 2904 2911 2919 2926 2933 2940 2945 2950 2953 2957
2884 2879 2874 2870 2867 2864 2861 2858 2856 2855 2853 2853 2854 2854 2855 2856 2857 2859 2861 2863 2865 2867 2870 2872 2875 2881 2886 2894 2900 2907 2915 2922 2928 2935 2940 2945 2949 2953
2877 2872 2867 2863 2860 2857 2855 2852 2850 2849 2847 2847 2848 2849 2849 2850 2852 2853 2855 2858 2860 2863 2865 2867 2870 2876 2882 2889 2897 2904 2910 2918 2924 2930 2935 2939 2943 2947